Location: Bidart
(43.4376°N, 1.5913°W)
Time: 19:36:27
(UTC+00:00)

ISS - Pass Details

Date: 26 January 2026
Orbit: 413 x 429 km, 51.6° (Epoch: 11 February)

Event Time Altitude Azimuth Distance (km) Brightness Sun altitude
Rises 18:32:23 0° 304° (WNW) 2,366 0.8 -15.0°
Reaches altitude 10° 18:34:30 10° 309° (NW) 1,503 -0.4 -15.4°
Maximum altitude 18:37:49 53° 28° (NNE) 521 -3.6 -16.0°
Enters shadow 18:38:39 41° 77° (ENE) 630 -3.4 -16.1°
